This demonstration page uses our WeatherBlox Daily Observations layout. Learn more.

Left ArrowRight Arrow

38.20091, -84.87328

Hourly Observations for January 29, 2020

Temp ( °F °C ) Dew Point ( °F °C ) Humidity (%) Winds ( mph kmh ) Pressure ( in mb ) Visibility ( mi km ) Precip ( " mm )
12:53 am 00:53 Cloudy 36 2.2 29 -1.7 76 76 NE 5 7 30.10 1019 10 16 0.00 0.00
1:53 am 01:53 Cloudy 35 1.7 29 -1.7 78 78 ENE 6 9 30.10 1019 10 16 0.00 0.00
2:53 am 02:53 Cloudy 35 1.7 29 -1.7 78 78 ENE 6 9 30.10 1019 10 16 0.00 0.00
3:53 am 03:53 Cloudy 35 1.7 29 -1.7 78 78 NE 5 7 30.10 1019 10 16 0.00 0.00
4:53 am 04:53 Cloudy 35 1.7 29 -1.7 78 78 NE 5 7 30.10 1019 10 16 0.00 0.00
5:53 am 05:53 Cloudy 35 1.7 29 -1.7 78 78 NE 6 9 30.11 1020 10 16 0.00 0.00
6:53 am 06:53 Cloudy 34 1.1 29 -1.7 82 82 NE 7 11 30.11 1020 10 16 0.00 0.00
7:15 am 07:15 Cloudy 35 1.7 29 -1.7 78 78 NE 6 9 30.15 1021 10 16 0.00 0.00
7:30 am 07:30 Cloudy 35 1.7 29 -1.7 78 78 ENE 6 9 30.15 1021 10 16 0.00 0.00
7:53 am 07:53 Cloudy 34 1.1 29 -1.7 82 82 ENE 5 7 30.14 1021 10 16 0.00 0.00
8:53 am 08:53 Cloudy 35 1.7 29 -1.7 78 78 ENE 6 9 30.14 1021 9 14 0.00 0.00
9:53 am 09:53 Cloudy 36 2.2 29 -1.7 76 76 ENE 6 9 30.15 1021 10 16 0.00 0.00
10:39 am 10:39 Cloudy 37 2.8 29 -1.7 73 73 NE 7 11 30.17 1022 10 16 0.00 0.00
10:53 am 10:53 Cloudy 37 2.8 29 -1.7 73 73 ENE 8 13 30.15 1021 10 16 0.00 0.00
11:53 am 11:53 Cloudy 39 3.9 28 -2.2 65 65 ENE 7 11 30.13 1020 10 16 0.00 0.00
12:53 pm 12:53 Cloudy 39 3.9 28 -2.2 65 65 NE 8 13 30.10 1019 10 16 0.00 0.00
1:53 pm 13:53 Cloudy 39 3.9 28 -2.2 65 65 E 8 13 30.09 1019 10 16 0.00 0.00
2:53 pm 14:53 Cloudy 39 3.9 27 -2.8 62 62 NE 7 11 30.09 1019 10 16 0.00 0.00
3:53 pm 15:53 Cloudy 38 3.3 28 -2.2 68 68 ENE 5 7 30.09 1019 10 16 0.00 0.00
4:53 pm 16:53 Cloudy 38 3.3 28 -2.2 68 68 ENE 7 11 30.09 1019 10 16 0.00 0.00
5:30 pm 17:30 Cloudy 38 3.3 27 -2.8 65 65 NNE 6 9 30.12 1020 10 16 0.00 0.00
5:53 pm 17:53 Cloudy 38 3.3 27 -2.8 65 65 NNE 7 11 30.10 1019 10 16 0.00 0.00
6:53 pm 18:53 Cloudy 37 2.8 28 -2.2 70 70 NNE 5 7 30.12 1020 10 16 0.00 0.00
7:47 pm 19:47 Cloudy with Light Snow 36 2 28 -2 75 75 NE 8 13 30.15 1021 3 4 0.00 0.00
7:53 pm 19:53 Cloudy with Light Snow 35 1.7 29 -1.7 78 78 ENE 9 15 30.14 1021 3 4 0.00 0.00
8:10 pm 20:10 Cloudy with Light Snow 35 1.7 29 -1.7 78 78 ENE 6 9 30.16 1021 3 5 0.00 0.00
8:20 pm 20:20 Cloudy with Light Snow 34 1.1 30 -1.1 85 85 ENE 7 11 30.17 1022 2 3 0.00 0.00
8:41 pm 20:41 Cloudy with Light Snow 34 1.1 30 -1.1 85 85 ENE 5 7 30.17 1022 2 3 0.00 0.00
8:53 pm 20:53 Cloudy with Light Snow 34 1.1 30 -1.1 85 85 E 5 7 30.14 1021 2 3 0.00 0.00
9:03 pm 21:03 Cloudy with Light Snow 33 0.6 31 -0.6 92 92 ENE 5 7 30.17 1022 3 4 0.00 0.00
9:15 pm 21:15 Cloudy with Light Snow 33 0.6 31 -0.6 92 92 ENE 5 7 30.17 1022 3 5 0.01 0.25
9:53 pm 21:53 Cloudy with Light Snow 33 0.6 30 -1.1 89 89 ENE 5 7 30.15 1021 4 6 0.01 0.25
10:53 pm 22:53 Cloudy 32 0 30 -1.1 92 92 Calm 30.15 1021 7 11 0.00 0.00
11:53 pm 23:53 Cloudy 33 0.6 30 -1.1 89 89 Calm 30.14 1021 10 16 0.00 0.00

Powered by AerisWeather